Regional Weather Roundup
Issued by NWS

Home | Current Version | Previous Version | Graphics & Text | Print | Product List | Glossary On
Versions: 1 2 3 4 5 6 7 8 9 10 11 12 13 14 15 16 17 18 19 20 21 22 23 24 25 26 27 28 29 30 31 32 33 34 35 36 37 38 39 40 41 42 43 44 45 46 47 48 49 50
000
ASUS43 KMPX 130210
RWRMN
WEATHER ROUNDUP FOR MINNESOTA
NATIONAL WEATHER SERVICE TWIN CITIES/CHANHASSEN MN
900 PM CDT SAT JUL 12 2014


NOTE: "FAIR" INDICATES FEW OR NO CLOUDS BELOW 12,000 FEET WITH NO
SIGNIFICANT WEATHER AND/OR OBSTRUCTIONS TO VISIBILITY. N/A MEANS
CURRENT SKY AND/OR WEATHER CONDITIONS ARE NOT AVAILABLE.

MNZ060>063-068>070-130300-
   Twin Cities Metro

CITY           SKY/WX    TMP DP  RH WIND       PRES   REMARKS
TWIN CITIES    PTCLDY    72  64  76 W6        29.93S
ST PAUL        MOCLDY    71  66  84 W5        29.93R
CRYSTAL        CLOUDY    73  63  70 W5        29.92R
BLAINE         PTCLDY    73  63  68 W5        29.93R
LAKEVILLE      CLEAR     68  64  88 CALM      29.94F
EDEN PRAIRIE   CLEAR     72  65  78 W3        29.93S
SOUTH ST PAUL  PTCLDY    72  65  80 SW3       29.93S
LAKE ELMO      CLOUDY    70  68  94 W5        29.94R
$$
MNZ001>005-007-008-013>017-022>024-027-028-130300-
   Northwest Minnesota

CITY           SKY/WX    TMP DP  RH WIND       PRES   REMARKS
BEMIDJI        PTCLDY    63  51  66 NW15G21   29.92R
HALLOCK        PTCLDY    63  57  82 NW6       29.93R
ROSEAU         MOCLDY    57  54  88 NW6       29.91R
WARROAD        MOCLDY    57  55  94 W6        29.90R
THIEF RVR FALL CLOUDY    59  55  88 NW9       29.92S
CROOKSTON      DRIZZLE   59  57  94 W3        29.93F
FOSSTON        MOCLDY    61  52  72 NW17G25   29.97R
DETROIT LAKES  CLEAR     73  55  53 NW9G16    29.93S
MOORHEAD       CLEAR     75  55  50 NW8       29.91S
PARK RAPIDS    CLEAR     67  61  81 SW7       29.90F
$$
MNZ006-009>011-018-025>026-130300-
   North Central Minnesota

CITY           SKY/WX    TMP DP  RH WIND       PRES   REMARKS
BAUDETTE       CLOUDY    58  55  90 VRB3      29.89S
FLAG ISLAND    PTCLDY    61  54  77 NW17G24   29.87R
INTL FALLS     CLOUDY    58  52  80 W6        29.84F
WASKISH        RAIN      61  55  82 W14G22    29.89F
BIG FORK       MOCLDY    61  54  77 N6G22     29.90R
LONGVILLE      CLEAR     66  59  77 SW3       29.88F
GRAND RAPIDS   CLEAR     68  55  64 SW3       29.87F
CRANE LAKE     TSTM      57  54  88 CALM      29.87R
ORR            MOCLDY    64  48  55 NW16G23   29.86R
COOK           CLEAR     66  55  68 SW3       29.84F
$$
MNZ012-019>021-037-130300-
   Northeast Minnesota

CITY           SKY/WX    TMP DP  RH WIND       PRES   REMARKS
DULUTH         PTCLDY    68  59  73 SW9       29.86F
ELY            CLEAR     66  55  68 W5        29.83F
HIBBING        CLEAR     68  54  60 SW3       29.85F
EVELETH        CLEAR     68  52  56 W7        29.86F
DULUTH HARBOR  PTCLDY    72  63  73 SW10      29.85F
TWO HARBORS    PTCLDY    64  59  82 SW3       29.82F
SILVER BAY     PTCLDY    63  63 100 CALM      29.81F
GRAND MARAIS     N/A     46  44  93 W5        29.80F
G MARAIS ARPRT PTCLDY    61  54  77 S5        29.84F
$$
MNZ029>031-032-039>041-046>048-054>057-064-130300-
   West Central Minnesota

CITY           SKY/WX    TMP DP  RH WIND       PRES   REMARKS
FERGUS FALLS   CLEAR     72  57  60 W7        29.92S
WHEATON        CLEAR     72  63  73 W3        29.96S
MORRIS         CLEAR     70  64  83 W6        29.94F
ALEXANDRIA     CLEAR     70  62  76 SW6       29.95F
ELBOW LAKE     FAIR      72  61  68 W8        29.93F
WADENA         CLEAR     68  61  77 SW5       29.92S
GLENWOOD       CLEAR     68  63  83 SW6       29.96F
APPLETON       CLEAR     72  64  78 W5        29.95F
BENSON         CLEAR     72  64  78 W6        29.95F
ORTONVILLE     CLEAR     73  61  64 SW3       29.96F
MADISON        CLEAR     73  66  78 W5        29.97F
WILLMAR        FAIR      72  63  73 W3        29.97F
$$
MNZ033>034-036-042>043-049>051-058-059-130300-
   Central Minnesota

CITY           SKY/WX    TMP DP  RH WIND       PRES   REMARKS
ST CLOUD       CLEAR     72  60  66 W6        29.93F
SAUK CENTRE    FAIR      69  62  78 SW3       29.94F
PAYNESVILLE    HVY RAIN  66  62  87 S3        29.96F
AITKIN         CLEAR     70  61  73 SW3       29.89F
PINE RIVER     CLEAR     68  61  77 CALM      29.93F
BRAINERD       CLEAR     74  60  61 W6        29.91F
STAPLES        PTCLDY    68  61  77 CALM      29.92F
LONG PRAIRIE   FAIR      68  61  77 S3        29.94F
LITTLE FALLS   CLEAR     70  59  68 CALM      29.93F
LITCHFIELD     CLEAR     73  66  78 W5        29.97S
BUFFALO        CLEAR     72  61  67 W7        29.96R
MAPLE LAKE     CLEAR     71  64  77 W3        29.95S
$$
MNZ037-044-045-052-053-130300-
   East Central Minnesota

CITY           SKY/WX    TMP DP  RH WIND       PRES   REMARKS
PRINCETON      PTCLDY    70  63  78 CALM      29.94S
MORA           PTCLDY    68  59  73 W5        29.93F
CAMBRIDGE      CLEAR     72  61  68 W3        29.92R
RUSH CITY      CLEAR     68  62  80 CALM      29.92R
MOOSE LAKE     PTCLDY    66  59  77 SW3       29.87F
HINCKLEY       FAIR      68  63  83 SW3       29.91S
CLOQUET        PTCLDY    68  57  68 SW7       29.88F
MCGREGOR       CLEAR     70  61  73 SW3       29.89F
$$
MNZ071>073-080-081-089-090-097-098-130300-
   Southwest Minnesota

CITY           SKY/WX    TMP DP  RH WIND       PRES   REMARKS
MONTEVIDEO     CLEAR     73  66  78 CALM      29.97F
GRANITE FALLS  CLEAR     71  66  85 SW5       29.98F
CANBY          CLEAR     72  65  79 W5        29.99F
MARSHALL       CLEAR     73  68  83 W5        29.98S
REDWOOD FALLS  CLEAR     72  66  81 W5        29.96F
OLIVIA         CLEAR     70  64  83 W3        29.96F
PIPESTONE      CLEAR     75  64  69 NW5       30.03R
WINDOM         CLEAR     70  64  83 N3        30.00S
WORTHINGTON    PTCLDY    72  64  78 N5        30.02S
JACKSON        CLEAR     72  63  73 N5        30.01R
TRACY          CLEAR     73  68  86 CALM      30.00S
SLAYTON        CLEAR     72  65  78 CALM      30.02S
$$
MNZ065>067-074>077-082>085-091>093-130300-
   South Central Minnesota

CITY           SKY/WX    TMP DP  RH WIND       PRES   REMARKS
MANKATO        PTCLDY    72  64  78 W6        29.97S
NEW ULM        CLEAR     70  70 100 W6        29.97S
ST JAMES       CLEAR     72  66  83 W6        29.99S
FAIRMONT       CLEAR     72  63  73 N3        29.99R
GLENCOE        CLEAR     73  64  73 W5        29.95S
FARIBAULT      CLEAR     72  63  73 CALM      29.96S
OWATONNA       CLEAR     70  64  83 W5        29.97S
WASECA         CLOUDY    72  63  73 CALM      29.99S
ALBERT LEA     CLEAR     70  66  88 NW3       29.97R
$$
MNZ078>079-086>088-094>096-130300-
   Southeast Minnesota

CITY           SKY/WX    TMP DP  RH WIND       PRES   REMARKS
ROCHESTER      CLOUDY    70  64  81 NW8       29.97R
RED WING       CLEAR     70  64  83 CALM      29.92S
STANTON        CLEAR     69  65  86 SW3       29.93F
DODGE CENTER   CLEAR     70  64  83 NW5       29.97S
WINONA         CLOUDY    70  66  88 CALM      29.94R
AUSTIN         CLEAR     70  64  83 NW6       29.96R
PRESTON        CLOUDY    67  66  97 NW3       29.95R
$$
ABBREVIATIONS USED IN REMARKS
   TC - TEMPERATURES IN CELSIUS
  WCI - WIND CHILL INDEX
   HX - HEAT INDEX
  VSB - VISIBILITY
$$



USA.gov is the U.S. government's official web portal to all federal, state and local government web resources and services.